Probability
3 1 1 1 1 1 1 0 0 0 0 0 0 0 0 0 0 0 0 0 0 0 0 0 0 0 0 0 0 0 0 0 0 0 0 0 0 0 0 0 0 0 0
3 2 1 1 1 2 2 1 0 0 0 0 0 0 0 0 0 0 0 0 0 1 1 1 0 0 0 0 0 0 0 0 0 0 0 0 0 0 0 0 0 0 0
4 3 1 1 2 3 3 2 1 0 0 0 0 0 0 0 1 1 2 2 1 2 2 2 1 0 0 0 0 0 0 0 0 0 0 0 0 0 0 0 0 0 0
4 3 1 1 1 2 3 2 1 1 1 0 0 0 0 1 2 3 5 5 4 4 4 4 3 1 1 1 1 0 0 0 0 0 0 0 0 0 0 0 0 0 0
4 4 2 1 0 1 2 1 1 1 2 1 0 0 1 2 4 5 6 8 8 8 8 7 6 4 3 4 4 3 2 2 2 1 1 0 0 0 0 0 0 0 0
4 5 4 2 1 1 2 1 0 1 2 1 1 0 1 4 6 7 9 10 10 11 11 12 10 8 7 7 8 7 6 5 4 3 2 1 1 1 1 1 0 0 0
5 5 4 3 2 2 3 1 0 0 1 2 2 1 1 3 5 7 9 10 10 10 12 14 14 12 10 8 8 9 9 8 5 4 3 3 3 2 2 2 1 1 1
5 5 5 4 3 3 3 1 0 1 1 2 2 1 0 1 2 4 7 8 8 9 11 13 15 15 14 12 9 9 10 10 8 6 5 4 4 4 4 4 3 2 2
9 8 7 5 4 4 3 1 1 3 4 4 3 2 1 1 1 1 3 5 7 9 10 11 13 17 20 19 16 12 11 12 12 11 9 7 6 5 5 6 5 3 1
14 13 11 10 8 5 4 3 4 7 8 7 6 5 4 3 1 1 1 2 4 7 9 9 10 15 21 24 23 19 15 13 14 14 13 12 10 8 7 5 4 1 0
17 16 16 16 14 10 8 6 7 9 10 10 10 9 7 6 3 1 0 0 1 4 6 7 7 10 16 21 24 22 18 14 13 13 14 14 12 11 9 7 4 1 0
18 17 17 19 18 15 13 11 10 11 11 12 12 11 9 7 5 3 1 0 0 1 3 5 5 7 10 13 16 18 16 12 8 7 9 10 10 10 10 9 7 3 1
17 17 17 17 17 16 15 14 13 11 11 11 11 9 8 7 5 3 1 0 0 0 2 4 5 6 7 7 8 10 10 6 3 2 3 3 4 5 6 8 8 5 2
15 17 18 16 15 16 16 15 14 13 12 11 10 9 10 8 6 6 4 1 0 0 1 3 5 5 5 5 5 6 5 2 0 0 0 0 0 0 1 4 5 4 2
14 16 17 15 15 15 16 15 14 14 16 14 12 11 12 11 9 9 7 3 1 1 1 2 4 5 5 4 3 5 4 2 0 0 0 0 0 0 0 1 1 1 1
14 16 16 16 15 15 15 15 15 16 17 16 13 11 10 10 9 9 7 4 3 2 2 2 3 4 5 3 2 3 3 1 0 0 0 0 0 0 0 0 0 0 0
15 17 18 17 16 15 15 16 17 17 17 14 11 9 8 8 8 7 5 3 3 3 3 3 2 2 2 1 0 1 1 0 0 0 0 0 0 0 0 0 0 0 0
17 18 19 19 17 15 15 16 17 17 14 11 8 8 8 8 7 5 3 2 3 3 2 2 1 0 0 0 0 0 0 0 0 0 0 0 0 0 0 0 0 0 0
18 18 19 20 19 16 15 15 15 12 9 8 7 6 7 7 6 4 1 1 2 1 1 1 0 0 0 0 0 0 0 0 0 0 0 0 0 0 0 0 0 0 0
17 18 19 20 19 16 13 13 12 9 6 6 6 6 6 6 5 3 1 0 0 0 0 0 0 0 0 0 0 0 0 0 0 0 0 0 0 0 0 0 0 0 0
18 19 20 19 16 12 9 9 9 8 6 6 6 6 5 4 3 1 0 0 0 0 0 0 0 0 0 0 0 0 0 0 0 0 0 0 0 0 0 0 0 0 0
25 25 22 18 12 7 5 5 6 8 9 8 6 5 3 1 1 0 0 0 0 0 0 0 0 0 0 0 0 0 0 0 0 0 0 0 0 0 0 0 0 0 0
33 31 25 18 12 6 3 2 3 8 12 12 9 6 4 2 1 1 1 0 0 0 0 0 0 0 0 0 0 0 0 0 0 0 0 0 0 0 0 0 0 0 0
37 34 27 20 14 8 3 0 1 6 13 14 11 9 8 6 4 3 2 1 0 0 0 0 0 0 0 0 0 0 0 0 0 0 0 0 0 0 0 1 0 0 0
39 36 29 24 20 12 5 0 1 5 11 12 11 10 9 7 4 2 2 1 0 0 0 0 0 0 0 0 0 0 0 0 0 0 0 0 0 0 0 0 0 0 0
39 36 31 28 23 16 7 1 1 5 10 10 9 9 7 4 2 1 1 1 1 0 0 0 0 0 0 0 0 0 0 0 0 0 0 0 0 0 0 0 0 0 0
Wind_Speed
3 3 2 2 2 2 2 2 1 2 1 1 1 1 1 2 3 5 6 11 11 10 10 10 10 9 9 9 9 8 8 8 8 7 7 7 7 7 7 7 7 6 6
3 3 2 1 2 1 1 1 2 1 1 1 1 1 1 2 3 5 6 7 10 10 10 10 10 10 10 10 9 9 9 8 8 8 8 8 8 8 8 8 7 7 7
3 2 2 2 2 1 2 1 1 1 2 2 2 2 2 2 2 4 6 5 6 9 10 11 10 10 10 10 10 10 9 9 8 9 9 8 8 8 8 8 8 7 7
3 2 2 2 2 2 2 2 2 2 1 1 1 1 1 2 3 3 4 5 5 6 8 11 11 10 11 11 11 11 10 10 9 10 9 9 9 9 9 9 9 8 8
3 2 1 2 2 2 2 3 2 1 1 1 2 2 2 2 3 4 4 5 5 5 6 9 12 11 12 12 11 11 11 11 10 10 10 10 10 9 9 9 9 9 9
3 2 2 3 3 2 1 1 1 1 1 2 3 2 2 2 2 2 4 4 4 6 7 7 7 8 12 11 11 11 12 11 10 10 10 10 10 9 9 9 9 9 9
4 3 1 2 2 2 3 3 2 3 3 2 1 1 1 1 2 2 2 2 3 4 5 6 6 4 6 11 10 10 11 11 11 10 10 11 11 9 9 9 9 9 10
4 4 3 2 2 2 2 2 2 1 2 2 2 0 1 1 1 2 1 2 2 1 2 5 5 5 4 4 6 9 9 10 10 10 10 10 10 9 9 9 9 9 10
4 2 4 3 2 2 2 3 3 3 2 2 1 2 1 1 1 1 1 1 2 1 1 2 4 5 5 4 5 7 9 9 9 9 9 9 9 9 9 9 9 9 9
3 3 3 2 2 2 1 3 3 3 3 2 2 2 2 2 2 1 1 0 1 1 1 1 1 3 4 4 4 6 9 9 9 9 8 8 8 8 9 9 10 10 10
3 3 3 2 2 2 2 2 1 2 2 3 2 2 2 2 2 2 2 1 0 0 0 1 0 0 2 3 3 4 7 8 8 8 7 7 7 8 8 9 9 9 9
2 3 3 2 2 2 2 2 2 3 2 3 2 2 2 2 2 2 3 3 2 1 1 1 1 0 0 1 2 4 6 7 7 6 6 6 6 6 6 6 7 7 7
2 2 3 2 2 2 2 2 2 3 3 3 3 3 3 3 2 2 3 2 2 1 0 0 0 0 1 1 2 4 5 5 5 5 5 5 4 4 4 4 4 5 6
2 2 3 3 2 2 3 2 2 3 3 3 4 3 2 2 2 2 2 2 2 1 1 1 0 1 1 2 4 4 3 6 6 5 5 4 4 4 4 5 5 5 5
2 3 3 2 2 2 2 1 2 2 1 1 2 2 2 2 1 2 2 3 3 2 1 1 1 1 2 2 3 3 4 7 7 6 6 6 5 5 5 5 6 6 6
1 1 2 2 2 2 2 2 2 1 1 1 1 1 1 2 1 1 1 2 2 2 1 1 1 1 2 3 4 3 5 8 7 7 7 6 6 6 6 6 6 6 6
2 2 2 2 2 2 2 1 2 1 1 1 1 1 1 2 1 1 1 1 1 2 2 0 0 1 2 3 3 3 3 3 4 8 8 8 7 7 7 6 6 6 6
2 2 2 2 2 2 1 1 2 1 0 1 1 1 1 1 1 1 0 0 0 1 2 2 1 1 1 3 3 3 3 4 4 7 8 8 7 7 7 7 7 6 6
3 2 2 2 1 1 1 1 1 1 1 1 1 1 1 1 2 1 0 0 1 1 2 3 2 1 1 2 3 3 4 3 4 5 7 7 7 8 8 8 8 8 7
3 2 2 2 1 1 0 0 0 0 0 0 1 1 2 2 2 1 1 1 1 2 2 3 3 2 2 2 3 3 3 2 2 3 4 5 7 7 8 8 8 8 7
3 3 2 2 2 1 1 1 1 1 1 1 2 2 3 4 4 2 2 2 1 1 2 2 2 2 2 2 2 2 3 3 2 2 3 2 3 3 4 6 7 7 7
3 3 2 2 2 2 2 2 1 0 1 1 1 2 3 4 4 5 5 4 2 2 2 2 2 3 3 2 2 3 3 3 2 2 2 2 2 3 2 2 5 7 6
3 3 3 3 3 3 3 3 2 1 2 2 1 1 1 3 3 3 3 4 3 3 2 2 2 2 3 3 3 4 3 3 2 3 2 2 2 2 2 4 8 7 7
3 2 3 3 3 4 3 2 2 1 2 2 2 2 2 3 3 2 2 3 3 3 2 2 2 2 2 2 3 3 4 3 3 2 2 2 2 2 2 3 8 8 7
3 3 3 3 3 4 3 2 1 1 1 1 2 3 2 3 3 2 1 2 3 2 4 5 4 4 5 5 4 3 4 3 2 2 1 2 2 2 2 2 5 8 7
3 3 3 3 3 3 4 2 0 1 2 2 3 4 5 3 2 2 0 1 2 2 3 3 3 3 4 4 4 3 3 3 2 2 2 2 2 2 2 2 3 4 5
Wind_Direction
147 143 156 177 169 164 171 166 183 156 151 170 199 172 90 86 111 118 135 156 158 165 170 173 175 177 180 184 188 186 185 186 182 180 184 186 185 185 186 186 186 184 184
134 141 153 175 160 157 135 153 172 151 193 185 203 181 154 134 133 137 145 160 167 171 178 182 185 187 189 194 196 197 197 195 192 191 194 197 196 197 200 199 199 198 196
143 157 161 176 154 143 138 175 190 173 204 195 198 199 182 172 162 150 154 162 171 181 185 188 189 192 196 201 203 204 205 204 203 202 201 204 204 206 206 206 207 206 203
164 181 174 164 162 173 174 184 223 212 201 197 195 218 190 170 180 173 172 173 171 176 187 192 190 192 199 204 207 209 211 211 211 209 208 208 209 211 211 212 212 212 211
172 190 159 149 193 198 192 209 182 196 197 212 209 206 207 192 190 195 184 182 174 168 169 187 193 196 201 206 211 214 215 212 211 210 210 211 212 213 213 215 217 216 213
185 198 182 176 208 195 189 188 164 214 227 227 244 217 211 197 187 195 202 190 181 180 176 172 187 201 204 207 212 213 213 212 211 212 214 216 217 216 215 217 218 217 216
189 200 208 181 207 202 197 194 191 204 223 222 217 257 266 202 183 193 197 197 191 185 171 160 175 184 194 208 211 212 214 215 215 215 216 218 220 217 217 219 219 218 218
194 193 189 212 209 205 210 215 194 229 245 221 179 169 298 314 298 238 190 189 184 164 164 170 169 175 179 177 199 207 213 218 218 216 216 217 217 215 217 219 216 215 215
200 211 187 214 219 215 198 208 211 217 230 259 217 173 196 229 289 296 250 210 142 143 193 164 175 179 184 168 177 200 208 211 214 217 215 213 214 214 212 209 210 210 209
201 194 203 211 229 247 208 219 207 209 216 242 248 219 201 178 181 263 295 318 104 151 191 225 214 178 173 174 161 162 190 202 209 215 217 213 209 209 208 208 212 212 207
218 206 194 202 215 233 239 245 196 212 222 239 244 238 229 207 206 197 235 241 247 238 182 190 141 72 171 175 170 160 173 190 198 206 210 211 210 209 209 213 217 216 211
213 209 193 194 202 213 232 233 227 226 231 251 266 255 223 212 204 202 217 220 215 240 328 19 60 54 331 129 145 139 156 172 182 192 198 202 207 209 210 210 210 209 203
205 202 189 184 209 216 221 222 221 238 235 238 244 253 247 240 221 199 196 216 215 215 207 20 36 52 64 72 80 97 124 147 158 168 171 173 175 173 172 172 178 178 169
200 183 177 190 209 229 237 218 226 231 225 233 246 249 259 251 235 200 198 201 219 223 210 220 90 95 84 84 81 82 93 112 121 127 128 128 131 134 138 137 137 139 141
200 172 179 188 202 223 246 227 238 253 239 243 262 259 266 263 226 214 213 201 197 212 233 198 136 88 92 92 97 98 94 101 110 113 116 122 126 129 132 132 131 131 128
220 171 181 193 202 219 233 238 241 247 237 247 252 267 283 306 295 232 224 226 199 193 208 174 116 120 111 104 103 101 99 101 105 111 109 110 114 115 121 126 126 124 122
205 195 198 202 211 221 233 236 252 239 232 267 299 289 263 285 291 266 236 228 206 179 187 197 91 119 112 114 110 101 101 96 100 109 112 113 111 111 110 114 117 117 119
209 202 204 205 216 212 211 244 271 284 284 285 308 314 301 287 295 289 284 257 190 154 159 168 160 135 125 137 128 119 110 101 98 105 113 114 113 112 110 105 102 101 103
195 188 185 188 213 196 173 212 271 324 304 294 305 314 339 360 7 13 15 87 115 124 129 152 163 144 140 140 119 105 97 100 110 110 110 110 112 113 111 107 103 98 96
182 178 171 182 178 155 122 18 349 228 248 326 38 49 53 49 34 359 34 75 99 117 140 147 142 147 140 139 133 133 118 107 107 117 105 111 118 117 113 111 110 107 104
183 167 176 174 158 133 70 33 309 201 160 127 89 79 77 77 66 55 58 75 103 125 145 141 146 146 147 156 158 154 139 134 107 120 115 112 117 110 116 118 115 115 112
168 164 165 141 108 85 75 62 1 4 85 97 106 110 122 102 93 91 92 94 115 149 155 159 162 165 166 163 151 154 145 147 148 154 140 135 134 128 129 126 132 132 129
165 156 148 131 110 97 88 82 57 12 90 89 93 81 70 79 89 97 115 118 97 104 138 155 164 173 165 163 167 165 159 157 150 163 149 139 137 136 154 147 148 151 151
160 156 152 145 134 123 118 93 46 117 105 100 90 96 96 84 55 55 109 106 87 71 96 127 134 141 135 148 165 156 143 126 120 130 140 144 159 157 142 140 162 166 167
158 164 153 146 137 130 139 125 5 179 135 126 110 80 82 98 58 33 108 124 115 97 82 86 88 115 124 137 146 137 146 152 151 163 164 150 159 150 138 150 173 181 183
164 158 148 144 142 135 151 156 232 240 169 145 120 102 75 84 83 38 355 147 141 125 111 106 102 122 139 153 167 170 168 168 156 164 171 164 172 163 160 168 173 184 198